Burns, OR

6:44 PM PDT on April 21, 2018 (GMT -0700)
Burns Municipal

Weather History for KBNO - April, 2014

Change the Weather History Date:

Tuesday, April 15, 2014

  Actual Average Record
Temperature  
Mean Temperature 47 °F 43 °F  
Max Temperature 58 °F 57 °F 77 °F (1984)
Min Temperature 35 °F 29 °F 18 °F (2008)
Degree Days  
Heating Degree Days 18 22  
Month to date heating degree days 316 350  
Since 1 July heating degree days 6383 6735  
Cooling Degree Days 0 0  
Month to date cooling degree days 0 0  
Year to date cooling degree days 0 0  
Moisture  
Dew Point 22 °F    
Average Humidity 41    
Maximum Humidity 65    
Minimum Humidity 17    
Precipitation  
Precipitation 0.00 in 0.03 in 0.23 in (1967)
Month to date precipitation 0.48 0.47  
Year to date precipitation 3.92 3.77  
Sea Level Pressure  
Sea Level Pressure 30.02 in    
Wind  
Wind Speed 12 mph (West)    
Max Wind Speed 25 mph    
Max Gust Speed 40 mph    
Visibility 10 miles    
Events      
T = Trace of Precipitation, MM = Missing Value Source: NWS Daily Summary

Daily Weather History Graph

Daily Weather History Graph

Search for Another Location

Airport or City:

Astronomy

Apr. 15, 2014 Rise Set
Actual Time 6:13 AM PDT 7:39 PM PDT
Civil Twilight 5:43 AM PDT 8:09 PM PDT
Nautical Twilight 5:07 AM PDT 8:45 PM PDT
Astronomical Twilight 4:28 AM PDT 9:23 PM PDT
Moon 8:27 PM PDT (4/15) 6:23 AM PDT (4/15)
Length of Visible Light 14h 26m
Length of Day
13h 26m
Full, 100% of the Moon is Illuminated
Apr 15
Full
Apr 22
Last Quarter
Apr 28
New
May 6
First Quarter
May 14
Full

Hourly Weather History & Observations

Time (PDT) Temp. Windchill Dew Point Humidity Pressure Visibility Wind Dir Wind Speed Gust Speed Precip Events Conditions
12:53 AM 39.0 °F 32.8 °F 24.1 °F 55% 30.00 in 10.0 mi West 9.2 mph - N/A   Clear
1:53 AM 39.0 °F 33.4 °F 24.1 °F 55% 29.99 in 10.0 mi West 8.1 mph - N/A   Clear
2:53 AM 41.0 °F 35.2 °F 27.0 °F 57% 29.99 in 10.0 mi West 9.2 mph - N/A   Clear
3:53 AM 42.1 °F 35.7 °F 28.0 °F 58% 29.98 in 10.0 mi West 11.5 mph - N/A   Clear
4:53 AM 44.1 °F 38.6 °F 28.9 °F 55% 29.96 in 10.0 mi West 10.4 mph - N/A   Clear
5:53 AM 42.1 °F 35.7 °F 30.0 °F 62% 29.98 in 10.0 mi West 11.5 mph - N/A   Clear
6:53 AM 41.0 °F 34.7 °F 30.0 °F 65% 30.01 in 10.0 mi WSW 10.4 mph - N/A   Clear
7:53 AM 45.0 °F 39.7 °F 28.9 °F 53% 30.04 in 10.0 mi West 10.4 mph - N/A   Overcast
8:53 AM 46.0 °F 39.0 °F 27.0 °F 47% 30.05 in 10.0 mi West 17.3 mph 21.9 mph N/A   Scattered Clouds
9:53 AM 50.0 °F - 21.9 °F 33% 30.05 in 10.0 mi WNW 21.9 mph 26.5 mph N/A   Clear
10:53 AM 51.1 °F - 21.9 °F 32% 30.06 in 10.0 mi West 20.7 mph - N/A   Clear
11:53 AM 53.1 °F - 23.0 °F 31% 30.05 in 10.0 mi West 12.7 mph 21.9 mph N/A   Clear
12:53 PM 54.0 °F - 21.9 °F 29% 30.04 in 10.0 mi West 19.6 mph 25.3 mph N/A   Clear
1:53 PM 55.9 °F - 23.0 °F 28% 30.03 in 10.0 mi WNW 15.0 mph 24.2 mph N/A   Clear
2:53 PM 57.0 °F - 21.9 °F 26% 30.02 in 10.0 mi West 17.3 mph 26.5 mph N/A   Clear
3:53 PM 57.0 °F - 16.0 °F 20% 30.00 in 10.0 mi WSW 10.4 mph 24.2 mph N/A   Clear
4:53 PM 57.0 °F - 14.0 °F 18% 29.99 in 10.0 mi WNW 18.4 mph 21.9 mph N/A   Clear
5:53 PM 54.0 °F - 12.0 °F 19% 30.01 in 10.0 mi West 12.7 mph - N/A   Clear
6:53 PM 52.0 °F - 15.1 °F 23% 30.01 in 10.0 mi NW 12.7 mph - N/A   Clear
7:53 PM 46.0 °F 43.1 °F 18.0 °F 33% 30.02 in 10.0 mi NW 5.8 mph - N/A   Clear
8:53 PM 43.0 °F 38.8 °F 19.0 °F 38% 30.04 in 10.0 mi WNW 6.9 mph - N/A   Clear
9:53 PM 42.1 °F 40.2 °F 21.0 °F 43% 30.03 in 10.0 mi NW 3.5 mph - N/A   Mostly Cloudy
10:53 PM 42.1 °F 39.2 °F 19.9 °F 41% 30.03 in 10.0 mi WNW 4.6 mph - N/A   Mostly Cloudy
11:53 PM 41.0 °F 38.0 °F 23.0 °F 49% 30.04 in 10.0 mi SW 4.6 mph - N/A   Mostly Cloudy